timestamp,surface_pressure_avg,surface_temp_avg,battery_voltage,lat,long
2018-01-07 00:00:00+00:00,273.7864,2.7,12.89,47.84626,-54.09684
2018-01-07 00:10:00+00:00,271.5097,2.69,12.81,47.84626,-54.09684
2018-01-07 00:20:00+00:00,276.8298,2.7,12.89,47.84626,-54.09684
2018-01-07 00:30:00+00:00,283.0447,2.7,12.89,47.84626,-54.09684
2018-01-07 00:40:00+00:00,278.7114,2.7,12.97,47.84626,-54.09684
2018-01-07 00:50:00+00:00,275.6998,2.78,12.97,47.84626,-54.09684
2018-01-07 01:00:00+00:00,287.1631,2.7,12.89,47.84626,-54.09684
2018-01-07 01:10:00+00:00,298.8497,2.7,12.81,47.84626,-54.09684
2018-01-07 01:20:00+00:00,295.9814,2.69,12.89,47.84626,-54.09684
2018-01-07 01:30:00+00:00,297.7647,2.7,12.89,47.84626,-54.09684
2018-01-07 01:40:00+00:00,309.9763,2.7,12.89,47.84626,-54.09684
2018-01-07 01:50:00+00:00,315.7547,2.7,12.89,47.84626,-54.09684
2018-01-07 02:00:00+00:00,317.4763,2.67,12.81,47.84626,-54.09684
2018-01-07 02:10:00+00:00,323.728,2.66,12.81,47.84626,-54.09684
2018-01-07 02:20:00+00:00,328.6779,2.68,12.89,47.84626,-54.09684
2018-01-07 02:30:00+00:00,328.2779,2.69,12.89,47.84626,-54.09684
2018-01-07 02:40:00+00:00,330.3746,2.67,12.89,47.84626,-54.09684
2018-01-07 02:50:00+00:00,331.5963,2.68,12.89,47.84626,-54.09684
2018-01-07 03:00:00+00:00,336.6613,2.68,12.81,47.84626,-54.09684
2018-01-07 03:10:00+00:00,339.7663,2.69,12.81,47.84626,-54.09684
2018-01-07 03:20:00+00:00,341.9645,2.7,12.89,47.84626,-54.09684
2018-01-07 03:30:00+00:00,339.6863,2.7,12.89,47.84626,-54.09684
2018-01-07 03:40:00+00:00,340.4413,2.7,12.89,47.84626,-54.09684
2018-01-07 03:50:00+00:00,339.7429,2.7,12.89,47.84626,-54.09684
2018-01-07 04:00:00+00:00,339.3514,2.69,12.81,47.84626,-54.09684
2018-01-07 04:10:00+00:00,344.2546,2.64,12.81,47.84626,-54.09684
2018-01-07 04:20:00+00:00,345.0364,2.61,12.89,47.84626,-54.09684
2018-01-07 04:30:00+00:00,345.2496,2.6,12.81,47.84626,-54.09684
2018-01-07 04:40:00+00:00,343.7813,2.6,12.89,47.84626,-54.09684
2018-01-07 04:50:00+00:00,343.4713,2.6,12.89,47.84626,-54.09684
2018-01-07 05:00:00+00:00,342.3679,2.6,12.81,47.84626,-54.09684
2018-01-07 05:10:00+00:00,340.358,2.6,12.73,47.84626,-54.09684
2018-01-07 05:20:00+00:00,336.9263,2.6,12.81,47.84626,-54.09684
2018-01-07 05:30:00+00:00,330.3914,2.6,12.81,47.84626,-54.09684
2018-01-07 05:40:00+00:00,325.6013,2.59,12.89,47.84626,-54.09684
2018-01-07 05:50:00+00:00,316.908,2.57,12.89,47.84626,-54.09684
2018-01-07 06:00:00+00:00,307.8163,2.59,12.81,47.84626,-54.09684
2018-01-07 06:10:00+00:00,296.518,2.57,12.73,47.84626,-54.09684
2018-01-07 06:20:00+00:00,290.743,2.55,12.81,47.84626,-54.09684
2018-01-07 06:30:00+00:00,283.553,2.55,12.81,47.84626,-54.09684
2018-01-07 06:40:00+00:00,270.7215,2.5,12.81,47.84626,-54.09684
2018-01-07 06:50:00+00:00,259.1481,2.5,12.89,47.84626,-54.09684
2018-01-07 07:00:00+00:00,249.2747,2.5,12.81,47.84626,-54.09684
2018-01-07 07:10:00+00:00,239.5615,2.5,12.73,47.84626,-54.09684
2018-01-07 07:20:00+00:00,227.1014,2.5,12.81,47.84626,-54.09684
2018-01-07 07:30:00+00:00,218.9214,2.5,12.81,47.84626,-54.09684
2018-01-07 07:40:00+00:00,215.9915,2.5,12.81,47.84626,-54.09684
2018-01-07 07:50:00+00:00,210.6865,2.5,12.81,47.84626,-54.09684
2018-01-07 08:00:00+00:00,206.1815,2.4,12.81,47.84626,-54.09684
2018-01-07 08:10:00+00:00,202.7698,2.3,12.73,47.84626,-54.09684
2018-01-07 08:20:00+00:00,201.3348,2.3,12.81,47.84626,-54.09684
2018-01-07 08:30:00+00:00,200.2764,2.29,12.81,47.84626,-54.09684
2018-01-07 08:40:00+00:00,199.6598,2.25,12.81,47.84626,-54.09684
2018-01-07 08:50:00+00:00,199.9631,2.29,12.81,47.84626,-54.09684
2018-01-07 09:00:00+00:00,196.4048,2.3,12.73,47.84626,-54.09684
2018-01-07 09:10:00+00:00,193.7765,2.3,12.73,47.84626,-54.09684
2018-01-07 09:20:00+00:00,198.5714,2.3,12.81,47.84626,-54.09684
2018-01-07 09:30:00+00:00,200.0315,2.37,12.81,47.84626,-54.09684
2018-01-07 09:40:00+00:00,196.9698,2.4,12.81,47.84626,-54.09684
2018-01-07 09:50:00+00:00,197.8431,2.4,12.81,47.84626,-54.09684
2018-01-07 10:00:00+00:00,206.0865,2.39,12.73,47.84626,-54.09684
2018-01-07 10:10:00+00:00,212.4531,2.4,12.73,47.84626,-54.09684
2018-01-07 10:20:00+00:00,213.1248,2.44,12.81,47.84626,-54.09684
2018-01-07 10:30:00+00:00,219.2881,2.4,12.81,47.84626,-54.09684
2018-01-07 10:40:00+00:00,228.3081,2.3,12.81,47.84626,-54.09684
2018-01-07 10:50:00+00:00,230.6531,2.28,12.81,47.84626,-54.09684
2018-01-07 11:00:00+00:00,230.8165,2.2,12.73,47.84626,-54.09684
2018-01-07 11:10:00+00:00,236.3231,2.2,12.73,47.84626,-54.09684
2018-01-07 11:20:00+00:00,244.0281,2.23,12.81,47.84626,-54.09684
2018-01-07 11:30:00+00:00,243.4948,2.4,12.81,47.84626,-54.09684
2018-01-07 11:40:00+00:00,244.123,2.42,12.81,47.84626,-54.09684
2018-01-07 11:50:00+00:00,253.738,2.4,12.81,47.84626,-54.09684
2018-01-07 12:00:00+00:00,261.1614,2.48,12.73,47.84626,-54.09684
2018-01-07 12:10:00+00:00,262.2681,2.6,12.73,47.84626,-54.09684
2018-01-07 12:20:00+00:00,265.6881,2.6,12.81,47.84626,-54.09684
2018-01-07 12:30:00+00:00,272.6031,2.6,12.81,47.84626,-54.09684
2018-01-07 12:40:00+00:00,275.2247,2.8,12.81,47.84626,-54.09684
2018-01-07 12:50:00+00:00,277.8364,2.89,12.81,47.84626,-54.09684
2018-01-07 13:00:00+00:00,285.9514,2.86,12.81,47.84626,-54.09684
2018-01-07 13:10:00+00:00,289.6814,2.9,12.73,47.84626,-54.09684
2018-01-07 13:20:00+00:00,294.2713,2.92,12.81,47.84626,-54.09684
2018-01-07 13:30:00+00:00,304.6346,2.9,12.81,47.84626,-54.09684
2018-01-07 13:40:00+00:00,312.338,2.82,12.89,47.84626,-54.09684
2018-01-07 13:50:00+00:00,313.3563,2.88,12.97,47.84626,-54.09684
2018-01-07 14:00:00+00:00,321.4763,2.9,12.81,47.84626,-54.09684
2018-01-07 14:10:00+00:00,334.9946,2.8,12.81,47.84626,-54.09684
2018-01-07 14:20:00+00:00,340.7812,2.65,12.97,47.84626,-54.09684
2018-01-07 14:30:00+00:00,344.508,2.5,13.05,47.84626,-54.09684
2018-01-07 14:40:00+00:00,353.5063,2.5,13.44,47.84626,-54.09684
2018-01-07 14:50:00+00:00,357.923,2.5,13.44,47.84626,-54.09684
2018-01-07 15:00:00+00:00,356.3312,2.5,13.37,47.84626,-54.09684
2018-01-07 15:10:00+00:00,360.0013,2.5,13.21,47.84626,-54.09684
2018-01-07 15:20:00+00:00,369.353,2.5,13.29,47.84626,-54.09684
2018-01-07 15:30:00+00:00,367.918,2.47,13.37,47.84626,-54.09684
2018-01-07 15:40:00+00:00,363.9996,2.4,13.37,47.84626,-54.09684
2018-01-07 15:50:00+00:00,369.2712,2.4,13.44,47.84626,-54.09684
2018-01-07 16:00:00+00:00,373.6196,2.4,13.44,47.84626,-54.09684
2018-01-07 16:10:00+00:00,366.2213,2.4,13.37,47.84626,-54.09684
2018-01-07 16:20:00+00:00,364.4896,2.4,13.68,47.84626,-54.09684
2018-01-07 16:30:00+00:00,371.423,2.4,13.44,47.84626,-54.09684
2018-01-07 16:40:00+00:00,369.2746,2.4,13.29,47.84626,-54.09684
2018-01-07 16:50:00+00:00,361.2496,2.4,13.29,47.84626,-54.09684
2018-01-07 17:00:00+00:00,359.2596,2.4,13.44,47.84626,-54.09684
2018-01-07 17:10:00+00:00,359.0313,2.4,13.37,47.84626,-54.09684
2018-01-07 17:20:00+00:00,356.2762,2.4,13.44,47.84626,-54.09684
2018-01-07 17:30:00+00:00,354.7379,2.66,13.37,47.84626,-54.09684
2018-01-07 17:40:00+00:00,350.2996,2.8,13.76,47.84626,-54.09684
2018-01-07 17:50:00+00:00,341.7112,2.9,13.44,47.84626,-54.09684
2018-01-07 18:00:00+00:00,337.3412,2.9,13.37,47.84626,-54.09684
2018-01-07 18:10:00+00:00,332.5397,2.9,13.37,47.84626,-54.09684
2018-01-07 18:20:00+00:00,323.8913,2.9,13.53,47.84626,-54.09684
2018-01-07 18:30:00+00:00,315.7513,2.8,13.29,47.84626,-54.09684
2018-01-07 18:40:00+00:00,312.373,2.8,13.53,47.84626,-54.09684
2018-01-07 18:50:00+00:00,300.2679,2.6,13.53,47.84626,-54.09684
2018-01-07 19:00:00+00:00,283.9781,2.5,13.29,47.84626,-54.09684
2018-01-07 19:10:00+00:00,280.4548,2.5,13.05,47.84626,-54.09684
2018-01-07 19:20:00+00:00,277.2031,2.5,13.05,47.84626,-54.09684
2018-01-07 19:30:00+00:00,261.3831,2.45,13.05,47.84626,-54.09684
2018-01-07 19:40:00+00:00,245.4881,2.46,13.05,47.84626,-54.09684
2018-01-07 19:50:00+00:00,242.4898,2.49,13.05,47.84626,-54.09684
2018-01-07 20:00:00+00:00,238.2464,2.49,12.97,47.84626,-54.09684
2018-01-07 20:10:00+00:00,227.6531,2.42,12.89,47.84626,-54.09684
2018-01-07 20:20:00+00:00,221.7981,2.4,12.97,47.84626,-54.09684
2018-01-07 20:30:00+00:00,219.1865,2.47,12.97,47.84626,-54.09684
2018-01-07 20:40:00+00:00,217.6097,2.49,12.97,47.84626,-54.09684
2018-01-07 20:50:00+00:00,212.6781,2.44,12.97,47.84626,-54.09684
2018-01-07 21:00:00+00:00,209.2614,2.4,12.89,47.84626,-54.09684
2018-01-07 21:10:00+00:00,210.7398,2.4,12.81,47.84626,-54.09684
2018-01-07 21:20:00+00:00,213.4064,2.4,12.89,47.84626,-54.09684
2018-01-07 21:30:00+00:00,215.2931,2.4,12.89,47.84626,-54.09684
2018-01-07 21:40:00+00:00,213.6365,2.4,12.89,47.84626,-54.09684
2018-01-07 21:50:00+00:00,216.7564,2.24,12.97,47.84626,-54.09684
2018-01-07 22:00:00+00:00,222.2898,2.2,12.81,47.84626,-54.09684
2018-01-07 22:10:00+00:00,221.0565,2.2,12.81,47.84626,-54.09684
2018-01-07 22:20:00+00:00,222.0515,2.18,12.89,47.84626,-54.09684
2018-01-07 22:30:00+00:00,227.0914,2.19,12.89,47.84626,-54.09684
2018-01-07 22:40:00+00:00,231.6414,2.1,12.89,47.84626,-54.09684
2018-01-07 22:50:00+00:00,230.0414,2.09,12.89,47.84626,-54.09684
2018-01-07 23:00:00+00:00,227.1314,1.9,12.81,47.84626,-54.09684
2018-01-07 23:10:00+00:00,229.9248,1.9,12.73,47.84626,-54.09684
2018-01-07 23:20:00+00:00,232.2148,1.9,12.81,47.84626,-54.09684
2018-01-07 23:30:00+00:00,229.8798,1.98,12.81,47.84626,-54.09684
2018-01-07 23:40:00+00:00,231.8447,2.1,12.89,47.84626,-54.09684
2018-01-07 23:50:00+00:00,233.9547,2.2,12.89,47.84626,-54.09684
